TimeCDT,TemperatureF,Dew PointF,Humidity,Sea Level PressureIn,VisibilityMPH,Wind Direction,Wind SpeedMPH,Gust SpeedMPH,PrecipitationIn,Events,Conditions,WindDirDegrees,DateUTC
12:53 AM,30.9,26.1,82,30.19,10.0,West,4.6,-,N/A,,Overcast,260,2012-10-07 05:53:00
1:53 AM,33.1,25.0,72,30.19,10.0,WNW,4.6,-,N/A,,Overcast,290,2012-10-07 06:53:00
2:53 AM,32.0,25.0,75,30.17,10.0,West,4.6,-,N/A,,Overcast,260,2012-10-07 07:53:00
3:53 AM,28.0,23.0,81,30.17,10.0,West,4.6,-,N/A,,Mostly Cloudy,260,2012-10-07 08:53:00
4:53 AM,26.1,21.0,81,30.17,10.0,West,6.9,-,N/A,,Scattered Clouds,270,2012-10-07 09:53:00
5:53 AM,25.0,21.0,85,30.17,10.0,West,5.8,-,N/A,,Clear,260,2012-10-07 10:53:00
6:53 AM,23.0,19.9,88,30.17,10.0,WSW,4.6,-,N/A,,Clear,250,2012-10-07 11:53:00
7:53 AM,26.1,21.9,84,30.17,10.0,WSW,3.5,-,N/A,,Clear,240,2012-10-07 12:53:00
8:53 AM,33.1,24.1,70,30.16,10.0,SW,5.8,-,N/A,,Clear,230,2012-10-07 13:53:00
9:53 AM,37.9,24.1,57,30.14,10.0,SW,8.1,-,N/A,,Clear,230,2012-10-07 14:53:00
10:53 AM,43.0,23.0,45,30.13,10.0,WSW,9.2,19.6,N/A,,Clear,240,2012-10-07 15:53:00
11:53 AM,44.1,19.9,38,30.11,10.0,West,11.5,18.4,N/A,,Clear,260,2012-10-07 16:53:00
12:53 PM,45.0,18.0,34,30.09,10.0,WSW,13.8,24.2,N/A,,Clear,240,2012-10-07 17:53:00
1:53 PM,46.9,17.1,30,30.06,10.0,WSW,16.1,24.2,N/A,,Partly Cloudy,250,2012-10-07 18:53:00
2:53 PM,46.0,15.1,29,30.05,10.0,WSW,13.8,25.3,N/A,,Partly Cloudy,240,2012-10-07 19:53:00
3:53 PM,46.9,15.1,28,30.03,10.0,SW,12.7,21.9,N/A,,Clear,230,2012-10-07 20:53:00
4:53 PM,46.0,15.1,29,30.02,10.0,WSW,8.1,-,N/A,,Partly Cloudy,240,2012-10-07 21:53:00
5:53 PM,44.1,15.1,31,30.02,10.0,WSW,10.4,-,N/A,,Clear,240,2012-10-07 22:53:00
6:53 PM,39.9,16.0,38,30.03,10.0,SW,6.9,-,N/A,,Clear,220,2012-10-07 23:53:00
7:53 PM,37.0,16.0,42,30.04,10.0,SSW,4.6,-,N/A,,Clear,200,2012-10-08 00:53:00
8:53 PM,35.1,17.1,48,30.04,10.0,SW,3.5,-,N/A,,Clear,220,2012-10-08 01:53:00
9:53 PM,32.0,17.1,54,30.03,10.0,SW,4.6,-,N/A,,Clear,220,2012-10-08 02:53:00
10:53 PM,35.1,17.1,48,30.01,10.0,SSW,6.9,-,N/A,,Clear,210,2012-10-08 03:53:00
11:53 PM,34.0,17.1,50,29.99,10.0,SSW,8.1,-,N/A,,Clear,210,2012-10-08 04:53:00